Year,Month,Day,Hour,Minute,Value (Times are PST for windgust in km/hr)
2012,01,25,00,00,41.80
2012,01,25,00,01,27.40
2012,01,25,00,02,22.50
2012,01,25,00,03,9.60
2012,01,25,00,04,19.30
2012,01,25,00,05,25.70
2012,01,25,00,06,22.50
2012,01,25,00,07,25.70
2012,01,25,00,08,32.20
2012,01,25,00,09,38.60
2012,01,25,00,10,43.50
2012,01,25,00,11,35.40
2012,01,25,00,12,32.20
2012,01,25,00,13,37.00
2012,01,25,00,14,14.50
2012,01,25,00,15,14.50
2012,01,25,00,16,14.50
2012,01,25,00,17,14.50
2012,01,25,00,18,14.50
2012,01,25,00,19,19.30
2012,01,25,00,20,38.60
2012,01,25,00,21,22.50
2012,01,25,00,22,24.20
2012,01,25,00,23,20.90
2012,01,25,00,24,27.40
2012,01,25,00,25,27.40
2012,01,25,00,26,17.70
2012,01,25,00,27,16.10
2012,01,25,00,28,6.40
2012,01,25,00,29,19.30
2012,01,25,00,30,12.90
2012,01,25,00,31,19.30
2012,01,25,00,32,12.90
2012,01,25,00,33,24.20
2012,01,25,00,34,12.90
2012,01,25,00,35,11.30
2012,01,25,00,36,3.20
2012,01,25,00,37,19.30
2012,01,25,00,38,19.30
2012,01,25,00,39,11.30
2012,01,25,00,40,12.90
2012,01,25,00,41,17.70
2012,01,25,00,42,14.50
2012,01,25,00,43,19.30
2012,01,25,00,44,25.70
2012,01,25,00,45,22.50
2012,01,25,00,46,24.20
2012,01,25,00,47,22.50
2012,01,25,00,48,22.50
2012,01,25,00,49,27.40
2012,01,25,00,50,24.20
2012,01,25,00,51,35.40
2012,01,25,00,52,22.50
2012,01,25,00,53,20.90
2012,01,25,00,54,22.50
2012,01,25,00,55,16.10
2012,01,25,00,56,19.30
2012,01,25,00,57,11.30
2012,01,25,00,58,17.70
2012,01,25,00,59,25.70
2012,01,25,01,00,11.30
2012,01,25,01,01,27.40
2012,01,25,01,02,19.30
2012,01,25,01,03,16.10
2012,01,25,01,04,20.90
2012,01,25,01,05,19.30
2012,01,25,01,06,25.70
2012,01,25,01,07,24.20
2012,01,25,01,08,30.60
2012,01,25,01,09,22.50
2012,01,25,01,10,16.10
2012,01,25,01,11,8.10
2012,01,25,01,12,11.30
2012,01,25,01,13,16.10
2012,01,25,01,14,24.20
2012,01,25,01,15,27.40
2012,01,25,01,16,19.30
2012,01,25,01,17,19.30
2012,01,25,01,18,22.50
2012,01,25,01,19,19.30
2012,01,25,01,20,16.10
2012,01,25,01,21,19.30
2012,01,25,01,22,19.30
2012,01,25,01,23,19.30
2012,01,25,01,24,20.90
2012,01,25,01,25,14.50
2012,01,25,01,26,19.30
2012,01,25,01,27,22.50
2012,01,25,01,28,19.30
2012,01,25,01,29,11.30
2012,01,25,01,30,8.10
2012,01,25,01,31,12.90
2012,01,25,01,32,20.90
2012,01,25,01,33,11.30
2012,01,25,01,34,16.10
2012,01,25,01,35,16.10
2012,01,25,01,36,22.50
2012,01,25,01,37,17.70
2012,01,25,01,38,19.30
2012,01,25,01,39,24.20
2012,01,25,01,40,19.30
2012,01,25,01,41,20.90
2012,01,25,01,42,19.30
2012,01,25,01,43,14.50
2012,01,25,01,44,22.50
2012,01,25,01,45,20.90
2012,01,25,01,46,24.20
2012,01,25,01,47,19.30
2012,01,25,01,48,25.70
2012,01,25,01,49,22.50
2012,01,25,01,50,22.50
2012,01,25,01,51,25.70
2012,01,25,01,52,17.70
2012,01,25,01,53,20.90
2012,01,25,01,54,9.60
2012,01,25,01,55,19.30
2012,01,25,01,56,8.10
2012,01,25,01,57,14.50
2012,01,25,01,58,41.80
2012,01,25,01,59,35.40
2012,01,25,02,00,27.40
2012,01,25,02,01,33.80
2012,01,25,02,02,30.60
2012,01,25,02,03,22.50
2012,01,25,02,04,19.30
2012,01,25,02,05,11.30
2012,01,25,02,06,19.30
2012,01,25,02,07,12.90
2012,01,25,02,08,12.90
2012,01,25,02,09,14.50
2012,01,25,02,10,14.50
2012,01,25,02,11,8.10
2012,01,25,02,12,3.20
2012,01,25,02,14,6.40
2012,01,25,02,15,11.30
2012,01,25,02,16,8.10
2012,01,25,02,17,6.40
2012,01,25,02,18,9.60
2012,01,25,02,19,8.10
2012,01,25,02,20,9.60
2012,01,25,02,21,6.40
2012,01,25,02,22,9.60
2012,01,25,02,23,9.60
2012,01,25,02,24,11.30
2012,01,25,02,25,3.20
2012,01,25,02,26,6.40
2012,01,25,02,27,4.80
2012,01,25,02,28,6.40
2012,01,25,02,29,3.20
2012,01,25,02,30,4.80
2012,01,25,02,31,6.40
2012,01,25,02,32,8.10
2012,01,25,02,33,6.40
2012,01,25,02,34,4.80
2012,01,25,02,35,4.80
2012,01,25,02,36,6.40
2012,01,25,02,37,9.60
2012,01,25,02,38,6.40
2012,01,25,02,39,4.80
2012,01,25,02,40,3.20
2012,01,25,02,41,1.60
2012,01,25,02,42,1.60
2012,01,25,02,43,4.80
2012,01,25,02,44,4.80
2012,01,25,02,45,4.80
2012,01,25,02,46,3.20
2012,01,25,02,47,6.40
2012,01,25,02,48,6.40
2012,01,25,02,49,4.80
2012,01,25,02,50,3.20
2012,01,25,02,51,3.20
2012,01,25,02,52,4.80
2012,01,25,02,53,4.80
2012,01,25,02,54,4.80
2012,01,25,02,55,3.20
2012,01,25,02,56,4.80
2012,01,25,02,57,1.60
2012,01,25,02,59,1.60
2012,01,25,03,00,3.20
2012,01,25,03,01,1.60
2012,01,25,03,02,3.20
2012,01,25,03,03,1.60
2012,01,25,03,04,1.60
2012,01,25,03,05,3.20
2012,01,25,03,06,4.80
2012,01,25,03,07,6.40
2012,01,25,03,08,9.60
2012,01,25,03,09,12.90
2012,01,25,03,10,14.50
2012,01,25,03,11,25.70
2012,01,25,03,12,20.90
2012,01,25,03,13,8.10
2012,01,25,03,14,22.50
2012,01,25,03,15,22.50
2012,01,25,03,16,16.10
2012,01,25,03,17,16.10
2012,01,25,03,18,12.90
2012,01,25,03,19,19.30
2012,01,25,03,20,17.70
2012,01,25,03,21,14.50
2012,01,25,03,22,11.30
2012,01,25,03,23,9.60
2012,01,25,03,24,6.40
2012,01,25,03,25,9.60
2012,01,25,03,26,8.10
2012,01,25,03,27,6.40
2012,01,25,03,28,4.80
2012,01,25,03,29,9.60
2012,01,25,03,30,14.50
2012,01,25,03,31,9.60
2012,01,25,03,32,9.60
2012,01,25,03,33,6.40
2012,01,25,03,34,8.10
2012,01,25,03,35,6.40
2012,01,25,03,36,8.10
2012,01,25,03,37,8.10
2012,01,25,03,38,3.20
2012,01,25,03,39,1.60
2012,01,25,03,40,6.40
2012,01,25,03,41,4.80
2012,01,25,03,42,1.60
2012,01,25,03,43,1.60
2012,01,25,03,44,1.60
2012,01,25,03,45,4.80
2012,01,25,03,46,9.60
2012,01,25,03,47,6.40
2012,01,25,03,48,4.80
2012,01,25,03,49,8.10
2012,01,25,03,50,12.90
2012,01,25,03,51,8.10
2012,01,25,03,52,6.40
2012,01,25,03,53,1.60
2012,01,25,03,54,8.10
2012,01,25,03,55,6.40
2012,01,25,03,56,6.40
2012,01,25,03,57,3.20
2012,01,25,03,58,8.10
2012,01,25,03,59,8.10
2012,01,25,04,00,9.60
2012,01,25,04,01,11.30
2012,01,25,04,02,8.10
2012,01,25,04,03,14.50
2012,01,25,04,04,11.30
2012,01,25,04,05,9.60
2012,01,25,04,06,8.10
2012,01,25,04,07,9.60
2012,01,25,04,08,4.80
2012,01,25,04,09,6.40
2012,01,25,04,10,9.60
2012,01,25,04,11,12.90
2012,01,25,04,12,16.10
2012,01,25,04,13,12.90
2012,01,25,04,14,11.30
2012,01,25,04,15,14.50
2012,01,25,04,16,14.50
2012,01,25,04,17,11.30
2012,01,25,04,18,11.30
2012,01,25,04,19,17.70
2012,01,25,04,20,12.90
2012,01,25,04,21,6.40
2012,01,25,04,22,6.40
2012,01,25,04,23,16.10
2012,01,25,04,24,16.10
2012,01,25,04,25,8.10
2012,01,25,04,26,4.80
2012,01,25,04,27,3.20
2012,01,25,04,28,8.10
2012,01,25,04,29,8.10
2012,01,25,04,30,8.10
2012,01,25,04,31,6.40
2012,01,25,04,32,4.80
2012,01,25,04,33,4.80
2012,01,25,04,34,1.60
2012,01,25,04,36,1.60
2012,01,25,04,37,4.80
2012,01,25,04,38,3.20
2012,01,25,04,39,1.60
2012,01,25,04,40,1.60
2012,01,25,04,41,1.60
2012,01,25,04,42,1.60
2012,01,25,04,43,1.60
2012,01,25,04,44,3.20
2012,01,25,04,45,3.20
2012,01,25,04,46,3.20
2012,01,25,04,47,3.20
2012,01,25,04,48,3.20
2012,01,25,04,49,1.60
2012,01,25,04,50,1.60
2012,01,25,04,51,1.60
2012,01,25,04,54,1.60
2012,01,25,04,55,3.20
2012,01,25,04,56,3.20
2012,01,25,04,57,1.60
2012,01,25,05,01,1.60
2012,01,25,05,02,3.20
2012,01,25,05,03,3.20
2012,01,25,05,06,4.80
2012,01,25,05,07,8.10
2012,01,25,05,08,8.10
2012,01,25,05,09,6.40
2012,01,25,05,10,6.40
2012,01,25,05,11,9.60
2012,01,25,05,12,9.60
2012,01,25,05,13,16.10
2012,01,25,05,14,12.90
2012,01,25,05,15,19.30
2012,01,25,05,16,12.90
2012,01,25,05,17,12.90
2012,01,25,05,18,12.90
2012,01,25,05,19,19.30
2012,01,25,05,20,20.90
2012,01,25,05,21,14.50
2012,01,25,05,22,20.90
2012,01,25,05,23,16.10
2012,01,25,05,24,17.70
2012,01,25,05,25,14.50
2012,01,25,05,26,27.40
2012,01,25,05,27,19.30
2012,01,25,05,28,25.70
2012,01,25,05,29,20.90
2012,01,25,05,30,20.90
2012,01,25,05,31,17.70
2012,01,25,05,32,20.90
2012,01,25,05,33,14.50
2012,01,25,05,34,14.50
2012,01,25,05,35,14.50
2012,01,25,05,36,12.90
2012,01,25,05,37,11.30
2012,01,25,05,38,11.30
2012,01,25,05,39,9.60
2012,01,25,05,40,8.10
2012,01,25,05,41,9.60
2012,01,25,05,42,12.90
2012,01,25,05,43,11.30
2012,01,25,05,44,12.90
2012,01,25,05,45,11.30
2012,01,25,05,46,12.90
2012,01,25,05,47,11.30
2012,01,25,05,48,6.40
2012,01,25,05,49,8.10
2012,01,25,05,50,4.80
2012,01,25,05,51,6.40
2012,01,25,05,52,8.10
2012,01,25,05,53,6.40
2012,01,25,05,54,4.80
2012,01,25,05,55,8.10
2012,01,25,05,56,6.40
2012,01,25,05,57,8.10
2012,01,25,05,58,9.60
2012,01,25,05,59,8.10
2012,01,25,06,00,8.10
2012,01,25,06,01,8.10
2012,01,25,06,02,6.40
2012,01,25,06,03,6.40
2012,01,25,06,04,8.10
2012,01,25,06,05,6.40
2012,01,25,06,06,4.80
2012,01,25,06,07,3.20
2012,01,25,06,08,1.60
2012,01,25,06,10,3.20
2012,01,25,06,11,3.20
2012,01,25,06,12,3.20
2012,01,25,06,13,3.20
2012,01,25,06,14,3.20
2012,01,25,06,15,3.20
2012,01,25,06,16,3.20
2012,01,25,06,17,4.80
2012,01,25,06,18,3.20
2012,01,25,06,19,3.20
2012,01,25,06,20,3.20
2012,01,25,06,21,6.40
2012,01,25,06,22,4.80
2012,01,25,06,23,6.40
2012,01,25,06,24,6.40
2012,01,25,06,25,4.80
2012,01,25,06,26,4.80
2012,01,25,06,27,3.20
2012,01,25,06,28,6.40
2012,01,25,06,29,8.10
2012,01,25,06,30,14.50
2012,01,25,06,31,11.30
2012,01,25,06,32,12.90
2012,01,25,06,33,19.30
2012,01,25,06,34,19.30
2012,01,25,06,35,22.50
2012,01,25,06,36,24.20
2012,01,25,06,37,22.50
2012,01,25,06,38,22.50
2012,01,25,06,39,25.70
2012,01,25,06,40,22.50
2012,01,25,06,41,20.90
2012,01,25,06,42,19.30
2012,01,25,06,43,29.00
2012,01,25,06,44,29.00
2012,01,25,06,45,20.90
2012,01,25,06,46,24.20
2012,01,25,06,47,22.50
2012,01,25,06,48,22.50
2012,01,25,06,49,25.70
2012,01,25,06,50,27.40
2012,01,25,06,51,16.10
2012,01,25,06,52,22.50
2012,01,25,06,53,16.10
2012,01,25,06,54,22.50
2012,01,25,06,55,19.30
2012,01,25,06,56,27.40
2012,01,25,06,57,24.20
2012,01,25,06,58,14.50
2012,01,25,06,59,19.30
2012,01,25,07,00,25.70
2012,01,25,07,01,17.70
2012,01,25,07,02,19.30
2012,01,25,07,03,16.10
2012,01,25,07,04,12.90
2012,01,25,07,05,12.90
2012,01,25,07,06,12.90
2012,01,25,07,07,17.70
2012,01,25,07,08,9.60
2012,01,25,07,09,12.90
2012,01,25,07,10,19.30
2012,01,25,07,11,17.70
2012,01,25,07,12,35.40
2012,01,25,07,13,32.20
2012,01,25,07,14,32.20
2012,01,25,07,15,19.30
2012,01,25,07,16,17.70
2012,01,25,07,17,12.90
2012,01,25,07,18,11.30
2012,01,25,07,19,12.90
2012,01,25,07,20,11.30
2012,01,25,07,21,11.30
2012,01,25,07,22,9.60
2012,01,25,07,23,11.30
2012,01,25,07,24,11.30
2012,01,25,07,25,14.50
2012,01,25,07,26,12.90
2012,01,25,07,27,14.50
2012,01,25,07,28,16.10
2012,01,25,07,29,12.90
2012,01,25,07,30,9.60
2012,01,25,07,31,11.30
2012,01,25,07,32,9.60
2012,01,25,07,33,8.10
2012,01,25,07,34,6.40
2012,01,25,07,35,4.80
2012,01,25,07,36,8.10
2012,01,25,07,37,14.50
2012,01,25,07,38,9.60
2012,01,25,07,39,11.30
2012,01,25,07,40,6.40
2012,01,25,07,41,8.10
2012,01,25,07,42,8.10
2012,01,25,07,43,9.60
2012,01,25,07,44,11.30
2012,01,25,07,45,6.40
2012,01,25,07,46,4.80
2012,01,25,07,47,6.40
2012,01,25,07,48,4.80
2012,01,25,07,49,3.20
2012,01,25,07,50,4.80
2012,01,25,07,51,4.80
2012,01,25,07,52,4.80
2012,01,25,07,53,6.40
2012,01,25,07,54,9.60
2012,01,25,07,55,9.60
2012,01,25,07,56,8.10
2012,01,25,07,57,6.40
2012,01,25,07,58,6.40
2012,01,25,07,59,6.40
2012,01,25,08,00,8.10
2012,01,25,08,01,8.10
2012,01,25,08,02,4.80
2012,01,25,08,03,6.40
2012,01,25,08,04,6.40
2012,01,25,08,05,8.10
2012,01,25,08,06,6.40
2012,01,25,08,07,6.40
2012,01,25,08,08,4.80
2012,01,25,08,09,4.80
2012,01,25,08,10,4.80
2012,01,25,08,11,4.80
2012,01,25,08,12,3.20
2012,01,25,08,13,3.20
2012,01,25,08,14,3.20
2012,01,25,08,15,4.80
2012,01,25,08,16,4.80
2012,01,25,08,17,3.20
2012,01,25,08,18,6.40
2012,01,25,08,19,6.40
2012,01,25,08,20,4.80
2012,01,25,08,21,3.20
2012,01,25,08,22,4.80
2012,01,25,08,23,6.40
2012,01,25,08,24,9.60
2012,01,25,08,25,12.90
2012,01,25,08,26,8.10
2012,01,25,08,27,3.20
2012,01,25,08,28,11.30
2012,01,25,08,29,9.60
2012,01,25,08,30,4.80
2012,01,25,08,31,4.80
2012,01,25,08,32,3.20
2012,01,25,08,33,9.60
2012,01,25,08,34,11.30
2012,01,25,08,35,4.80
2012,01,25,08,36,6.40
2012,01,25,08,37,6.40
2012,01,25,08,38,3.20
2012,01,25,08,39,4.80
2012,01,25,08,40,6.40
2012,01,25,08,41,6.40
2012,01,25,08,42,6.40
2012,01,25,08,43,6.40
2012,01,25,08,44,4.80
2012,01,25,08,45,6.40
2012,01,25,08,46,6.40
2012,01,25,08,47,6.40
2012,01,25,08,48,4.80
2012,01,25,08,49,6.40
2012,01,25,08,50,6.40
2012,01,25,08,51,4.80
2012,01,25,08,52,6.40
2012,01,25,08,53,4.80
2012,01,25,08,54,4.80
2012,01,25,08,55,4.80
2012,01,25,08,56,4.80
2012,01,25,08,57,3.20
2012,01,25,08,58,4.80
2012,01,25,08,59,4.80
2012,01,25,09,00,6.40
2012,01,25,09,01,6.40
2012,01,25,09,02,6.40
2012,01,25,09,03,3.20
2012,01,25,09,04,4.80
2012,01,25,09,05,8.10
2012,01,25,09,06,4.80
2012,01,25,09,07,8.10
2012,01,25,09,08,6.40
2012,01,25,09,09,3.20
2012,01,25,09,10,3.20
2012,01,25,09,11,3.20
2012,01,25,09,12,4.80
2012,01,25,09,13,4.80
2012,01,25,09,14,9.60
2012,01,25,09,15,6.40
2012,01,25,09,16,4.80
2012,01,25,09,17,9.60
2012,01,25,09,18,6.40
2012,01,25,09,19,8.10
2012,01,25,09,20,6.40
2012,01,25,09,21,8.10
2012,01,25,09,22,3.20
2012,01,25,09,23,4.80
2012,01,25,09,24,4.80
2012,01,25,09,25,3.20
2012,01,25,09,26,3.20
2012,01,25,09,27,6.40
2012,01,25,09,28,6.40
2012,01,25,09,29,6.40
2012,01,25,09,30,8.10
2012,01,25,09,31,8.10
2012,01,25,09,32,8.10
2012,01,25,09,33,4.80
2012,01,25,09,34,8.10
2012,01,25,09,35,4.80
2012,01,25,09,36,6.40
2012,01,25,09,37,6.40
2012,01,25,09,38,9.60
2012,01,25,09,39,11.30
2012,01,25,09,40,9.60
2012,01,25,09,41,16.10
2012,01,25,09,42,9.60
2012,01,25,09,43,8.10
2012,01,25,09,44,8.10
2012,01,25,09,45,19.30
2012,01,25,09,46,14.50
2012,01,25,09,47,4.80
2012,01,25,09,48,11.30
2012,01,25,09,49,19.30
2012,01,25,09,50,9.60
2012,01,25,09,51,3.20
2012,01,25,09,52,8.10
2012,01,25,09,53,8.10
2012,01,25,09,54,12.90
2012,01,25,09,55,9.60
2012,01,25,09,56,6.40
2012,01,25,09,57,8.10
2012,01,25,09,58,9.60
2012,01,25,09,59,12.90
2012,01,25,10,00,12.90
2012,01,25,10,01,6.40
2012,01,25,10,02,8.10
2012,01,25,10,03,8.10
2012,01,25,10,04,4.80
2012,01,25,10,05,4.80
2012,01,25,10,06,6.40
2012,01,25,10,07,12.90
2012,01,25,10,08,16.10
2012,01,25,10,09,9.60
2012,01,25,10,10,14.50
2012,01,25,10,11,9.60
2012,01,25,10,12,9.60
2012,01,25,10,13,14.50
2012,01,25,10,14,20.90
2012,01,25,10,15,11.30
2012,01,25,10,16,17.70
2012,01,25,10,17,11.30
2012,01,25,10,18,11.30
2012,01,25,10,19,8.10
2012,01,25,10,20,14.50
2012,01,25,10,21,6.40
2012,01,25,10,22,3.20
2012,01,25,10,23,8.10
2012,01,25,10,24,9.60
2012,01,25,10,25,4.80
2012,01,25,10,26,12.90
2012,01,25,10,27,8.10
2012,01,25,10,28,8.10
2012,01,25,10,29,11.30
2012,01,25,10,30,8.10
2012,01,25,10,31,11.30
2012,01,25,10,32,8.10
2012,01,25,10,33,9.60
2012,01,25,10,34,16.10
2012,01,25,10,35,14.50
2012,01,25,10,36,19.30
2012,01,25,10,37,9.60
2012,01,25,10,38,6.40
2012,01,25,10,39,6.40
2012,01,25,10,40,17.70
2012,01,25,10,41,16.10
2012,01,25,10,42,16.10
2012,01,25,10,43,11.30
2012,01,25,10,44,6.40
2012,01,25,10,45,8.10
2012,01,25,10,46,8.10
2012,01,25,10,47,6.40
2012,01,25,10,48,4.80
2012,01,25,10,49,8.10
2012,01,25,10,50,8.10
2012,01,25,10,51,12.90
2012,01,25,10,52,14.50
2012,01,25,10,53,8.10
2012,01,25,10,54,12.90
2012,01,25,10,55,17.70
2012,01,25,10,56,12.90
2012,01,25,10,57,12.90
2012,01,25,10,58,12.90
2012,01,25,10,59,12.90
2012,01,25,11,00,16.10
2012,01,25,11,01,12.90
2012,01,25,11,02,14.50
2012,01,25,11,03,17.70
2012,01,25,11,04,19.30
2012,01,25,11,05,19.30
2012,01,25,11,06,11.30
2012,01,25,11,07,14.50
2012,01,25,11,08,11.30
2012,01,25,11,09,12.90
2012,01,25,11,10,16.10
2012,01,25,11,11,14.50
2012,01,25,11,12,9.60
2012,01,25,11,13,16.10
2012,01,25,11,14,16.10
2012,01,25,11,15,16.10
2012,01,25,11,16,14.50
2012,01,25,11,17,22.50
2012,01,25,11,18,16.10
2012,01,25,11,19,17.70
2012,01,25,11,20,11.30
2012,01,25,11,21,14.50
2012,01,25,11,22,14.50
2012,01,25,11,23,17.70
2012,01,25,11,24,12.90
2012,01,25,11,25,12.90
2012,01,25,11,26,16.10
2012,01,25,11,27,4.80
2012,01,25,11,28,8.10
2012,01,25,11,29,6.40
2012,01,25,11,30,11.30
2012,01,25,11,31,6.40
2012,01,25,11,32,6.40
2012,01,25,11,33,6.40
2012,01,25,11,34,6.40
2012,01,25,11,35,8.10
2012,01,25,11,36,9.60
2012,01,25,11,37,6.40
2012,01,25,11,38,4.80
2012,01,25,11,39,12.90
2012,01,25,11,40,9.60
2012,01,25,11,41,12.90
2012,01,25,11,42,8.10
2012,01,25,11,43,11.30
2012,01,25,11,44,4.80
2012,01,25,11,45,6.40
2012,01,25,11,46,8.10
2012,01,25,11,47,9.60
2012,01,25,11,48,8.10
2012,01,25,11,49,9.60
2012,01,25,11,50,8.10
2012,01,25,11,51,14.50
2012,01,25,11,52,6.40
2012,01,25,11,53,9.60
2012,01,25,11,54,8.10
2012,01,25,11,55,9.60
2012,01,25,11,56,4.80
2012,01,25,11,57,4.80
2012,01,25,11,58,8.10
2012,01,25,11,59,6.40
2012,01,25,12,00,4.80
2012,01,25,12,01,4.80
2012,01,25,12,02,3.20
2012,01,25,12,03,4.80
2012,01,25,12,04,6.40
2012,01,25,12,05,6.40
2012,01,25,12,06,4.80
2012,01,25,12,07,3.20
2012,01,25,12,08,8.10
2012,01,25,12,09,6.40
2012,01,25,12,10,3.20
2012,01,25,12,11,1.60
2012,01,25,12,12,1.60
2012,01,25,12,13,4.80
2012,01,25,12,14,4.80
2012,01,25,12,15,6.40
2012,01,25,12,16,6.40
2012,01,25,12,17,6.40
2012,01,25,12,18,11.30
2012,01,25,12,19,8.10
2012,01,25,12,20,8.10
2012,01,25,12,21,4.80
2012,01,25,12,22,6.40
2012,01,25,12,23,4.80
2012,01,25,12,24,3.20
2012,01,25,12,25,6.40
2012,01,25,12,26,8.10
2012,01,25,12,27,6.40
2012,01,25,12,28,6.40
2012,01,25,12,29,6.40
2012,01,25,12,30,3.20
2012,01,25,12,31,3.20
2012,01,25,12,32,4.80
2012,01,25,12,33,6.40
2012,01,25,12,34,3.20
2012,01,25,12,35,6.40
2012,01,25,12,36,6.40
2012,01,25,12,37,4.80
2012,01,25,12,38,4.80
2012,01,25,12,39,6.40
2012,01,25,12,40,6.40
2012,01,25,12,41,8.10
2012,01,25,12,42,6.40
2012,01,25,12,43,1.60
2012,01,25,12,44,3.20
2012,01,25,12,45,4.80
2012,01,25,12,46,4.80
2012,01,25,12,47,6.40
2012,01,25,12,48,4.80
2012,01,25,12,49,6.40
2012,01,25,12,50,6.40
2012,01,25,12,51,6.40
2012,01,25,12,52,4.80
2012,01,25,12,53,4.80
2012,01,25,12,54,4.80
2012,01,25,12,55,4.80
2012,01,25,12,56,3.20
2012,01,25,12,57,3.20
2012,01,25,12,58,4.80
2012,01,25,12,59,4.80
2012,01,25,13,00,4.80
2012,01,25,13,01,4.80
2012,01,25,13,02,4.80
2012,01,25,13,03,4.80
2012,01,25,13,04,4.80
2012,01,25,13,05,4.80
2012,01,25,13,06,3.20
2012,01,25,13,07,3.20
2012,01,25,13,08,3.20
2012,01,25,13,09,3.20
2012,01,25,13,10,3.20
2012,01,25,13,11,3.20
2012,01,25,13,12,1.60
2012,01,25,13,28,1.60
2012,01,25,13,29,1.60
2012,01,25,13,30,1.60
2012,01,25,13,31,3.20
2012,01,25,13,32,1.60
2012,01,25,13,33,3.20
2012,01,25,13,34,1.60
2012,01,25,13,35,1.60
2012,01,25,13,36,1.60
2012,01,25,13,37,4.80
2012,01,25,13,38,1.60
2012,01,25,13,39,1.60
2012,01,25,13,40,1.60
2012,01,25,13,41,3.20
2012,01,25,13,42,1.60
2012,01,25,13,43,1.60
2012,01,25,13,44,3.20
2012,01,25,13,45,3.20
2012,01,25,13,46,3.20
2012,01,25,13,47,4.80
2012,01,25,13,48,6.40
2012,01,25,13,49,4.80
2012,01,25,13,50,4.80
2012,01,25,13,51,4.80
2012,01,25,13,52,6.40
2012,01,25,13,53,4.80
2012,01,25,13,54,4.80
2012,01,25,13,55,3.20
2012,01,25,13,56,1.60
2012,01,25,13,57,4.80
2012,01,25,13,58,3.20
2012,01,25,14,00,1.60
2012,01,25,14,03,1.60
2012,01,25,14,04,1.60
2012,01,25,14,05,1.60
2012,01,25,14,06,3.20
2012,01,25,14,07,3.20
2012,01,25,14,08,3.20
2012,01,25,14,09,3.20
2012,01,25,14,10,3.20
2012,01,25,14,11,1.60
2012,01,25,14,12,3.20
2012,01,25,14,13,3.20
2012,01,25,14,14,3.20
2012,01,25,14,15,3.20
2012,01,25,14,16,3.20
2012,01,25,14,17,1.60
2012,01,25,14,18,1.60
2012,01,25,14,19,1.60
2012,01,25,14,20,1.60
2012,01,25,14,21,3.20
2012,01,25,14,22,4.80
2012,01,25,14,23,6.40
2012,01,25,14,24,6.40
2012,01,25,14,25,8.10
2012,01,25,14,26,6.40
2012,01,25,14,27,6.40
2012,01,25,14,28,6.40
2012,01,25,14,29,6.40
2012,01,25,14,30,3.20
2012,01,25,14,31,6.40
2012,01,25,14,32,8.10
2012,01,25,14,33,8.10
2012,01,25,14,34,9.60
2012,01,25,14,35,9.60
2012,01,25,14,36,9.60
2012,01,25,14,37,9.60
2012,01,25,14,38,9.60
2012,01,25,14,39,8.10
2012,01,25,14,40,8.10
2012,01,25,14,41,9.60
2012,01,25,14,42,6.40
2012,01,25,14,43,9.60
2012,01,25,14,44,9.60
2012,01,25,14,45,6.40
2012,01,25,14,46,6.40
2012,01,25,14,47,9.60
2012,01,25,14,48,8.10
2012,01,25,14,49,6.40
2012,01,25,14,50,8.10
2012,01,25,14,51,6.40
2012,01,25,14,52,6.40
2012,01,25,14,53,11.30
2012,01,25,14,54,6.40
2012,01,25,14,55,8.10
2012,01,25,14,56,6.40
2012,01,25,14,57,8.10
2012,01,25,14,58,9.60
2012,01,25,14,59,8.10
2012,01,25,15,00,6.40
2012,01,25,15,01,9.60
2012,01,25,15,02,12.90
2012,01,25,15,03,12.90
2012,01,25,15,04,11.30
2012,01,25,15,05,9.60
2012,01,25,15,06,8.10
2012,01,25,15,07,8.10
2012,01,25,15,08,3.20
2012,01,25,15,09,3.20
2012,01,25,15,10,11.30
2012,01,25,15,11,11.30
2012,01,25,15,12,9.60
2012,01,25,15,13,11.30
2012,01,25,15,14,9.60
2012,01,25,15,15,9.60
2012,01,25,15,16,8.10
2012,01,25,15,17,9.60
2012,01,25,15,18,9.60
2012,01,25,15,19,8.10
2012,01,25,15,20,8.10
2012,01,25,15,21,3.20
2012,01,25,15,22,3.20
2012,01,25,15,23,6.40
2012,01,25,15,24,1.60
2012,01,25,15,25,8.10
2012,01,25,15,26,9.60
2012,01,25,15,27,9.60
2012,01,25,15,28,9.60
2012,01,25,15,29,12.90
2012,01,25,15,30,9.60
2012,01,25,15,31,9.60
2012,01,25,15,32,6.40
2012,01,25,15,33,8.10
2012,01,25,15,34,3.20
2012,01,25,15,35,6.40
2012,01,25,15,36,6.40
2012,01,25,15,37,3.20
2012,01,25,15,39,3.20
2012,01,25,15,40,3.20
2012,01,25,15,41,8.10
2012,01,25,15,42,9.60
2012,01,25,15,43,9.60
2012,01,25,15,44,8.10
2012,01,25,15,45,6.40
2012,01,25,15,46,11.30
2012,01,25,15,47,11.30
2012,01,25,15,48,9.60
2012,01,25,15,49,9.60
2012,01,25,15,50,3.20
2012,01,25,15,51,1.60
2012,01,25,15,52,9.60
2012,01,25,15,53,8.10
2012,01,25,15,54,6.40
2012,01,25,15,55,8.10
2012,01,25,15,56,6.40
2012,01,25,15,57,8.10
2012,01,25,15,58,14.50
2012,01,25,15,59,11.30
2012,01,25,16,00,9.60
2012,01,25,16,01,14.50
2012,01,25,16,02,20.90
2012,01,25,16,03,24.20
2012,01,25,16,04,17.70
2012,01,25,16,05,14.50
2012,01,25,16,06,16.10
2012,01,25,16,07,12.90
2012,01,25,16,08,11.30
2012,01,25,16,09,16.10
2012,01,25,16,10,12.90
2012,01,25,16,11,9.60
2012,01,25,16,12,11.30
2012,01,25,16,13,12.90
2012,01,25,16,14,9.60
2012,01,25,16,15,12.90
2012,01,25,16,16,8.10
2012,01,25,16,17,4.80
2012,01,25,16,18,4.80
2012,01,25,16,19,6.40
2012,01,25,16,20,3.20
2012,01,25,16,21,8.10
2012,01,25,16,22,6.40
2012,01,25,16,23,4.80
2012,01,25,16,24,8.10
2012,01,25,16,25,8.10
2012,01,25,16,26,12.90
2012,01,25,16,27,14.50
2012,01,25,16,28,14.50
2012,01,25,16,29,16.10
2012,01,25,16,30,17.70
2012,01,25,16,31,14.50
2012,01,25,16,32,11.30
2012,01,25,16,33,8.10
2012,01,25,16,34,4.80
2012,01,25,16,35,12.90
2012,01,25,16,36,11.30
2012,01,25,16,37,8.10
2012,01,25,16,38,6.40
2012,01,25,16,39,8.10
2012,01,25,16,40,8.10
2012,01,25,16,41,8.10
2012,01,25,16,42,4.80
2012,01,25,16,43,4.80
2012,01,25,16,44,6.40
2012,01,25,16,45,4.80
2012,01,25,16,46,3.20
2012,01,25,16,47,4.80
2012,01,25,16,48,6.40
2012,01,25,16,49,4.80
2012,01,25,16,50,4.80
2012,01,25,16,51,8.10
2012,01,25,16,52,4.80
2012,01,25,16,53,8.10
2012,01,25,16,54,8.10
2012,01,25,16,55,9.60
2012,01,25,16,56,8.10
2012,01,25,16,57,8.10
2012,01,25,16,58,9.60
2012,01,25,16,59,6.40
2012,01,25,17,00,9.60
2012,01,25,17,01,8.10
2012,01,25,17,02,4.80
2012,01,25,17,03,8.10
2012,01,25,17,04,3.20
2012,01,25,17,05,8.10
2012,01,25,17,06,6.40
2012,01,25,17,07,3.20
2012,01,25,17,08,3.20
2012,01,25,17,09,6.40
2012,01,25,17,10,6.40
2012,01,25,17,11,4.80
2012,01,25,17,12,4.80
2012,01,25,17,13,6.40
2012,01,25,17,14,6.40
2012,01,25,17,15,3.20
2012,01,25,17,16,3.20
2012,01,25,17,17,6.40
2012,01,25,17,18,9.60
2012,01,25,17,19,9.60
2012,01,25,17,20,8.10
2012,01,25,17,21,9.60
2012,01,25,17,22,8.10
2012,01,25,17,23,6.40
2012,01,25,17,24,9.60
2012,01,25,17,25,9.60
2012,01,25,17,26,9.60
2012,01,25,17,27,11.30
2012,01,25,17,28,9.60
2012,01,25,17,29,3.20
2012,01,25,17,30,6.40
2012,01,25,17,31,8.10
2012,01,25,17,32,8.10
2012,01,25,17,33,8.10
2012,01,25,17,34,6.40
2012,01,25,17,35,3.20
2012,01,25,17,36,8.10
2012,01,25,17,37,6.40
2012,01,25,17,38,8.10
2012,01,25,17,39,9.60
2012,01,25,17,40,8.10
2012,01,25,17,41,8.10
2012,01,25,17,42,8.10
2012,01,25,17,43,8.10
2012,01,25,17,44,6.40
2012,01,25,17,45,6.40
2012,01,25,17,46,11.30
2012,01,25,17,47,8.10
2012,01,25,17,48,8.10
2012,01,25,17,49,6.40
2012,01,25,17,50,6.40
2012,01,25,17,51,6.40
2012,01,25,17,52,8.10
2012,01,25,17,53,1.60
2012,01,25,17,54,8.10
2012,01,25,17,55,9.60
2012,01,25,17,56,14.50
2012,01,25,17,57,14.50
2012,01,25,17,58,8.10
2012,01,25,17,59,6.40
2012,01,25,18,00,3.20
2012,01,25,18,01,11.30
2012,01,25,18,02,11.30
2012,01,25,18,03,8.10
2012,01,25,18,04,11.30
2012,01,25,18,05,4.80
2012,01,25,18,06,6.40
2012,01,25,18,07,6.40
2012,01,25,18,08,8.10
2012,01,25,18,09,9.60
2012,01,25,18,10,9.60
2012,01,25,18,11,14.50
2012,01,25,18,12,17.70
2012,01,25,18,13,12.90
2012,01,25,18,14,9.60
2012,01,25,18,15,8.10
2012,01,25,18,16,6.40
2012,01,25,18,17,8.10
2012,01,25,18,18,9.60
2012,01,25,18,19,12.90